Reflectivity
20 15 20 36 33 27 33 36 36 29 29 28 27 18 13 21 16 7 6 -2 -3 -20 -20 -20 -20 -20 -20 -20 -20 -20 -20 -20 -20 -20 -20 -20 -19 -20 -20 -20 -20 -20 -20 -20 -20 -20 -20 -20 -15 -17 -16 -3 -18 -20
21 27 30 30 31 36 37 37 33 31 33 30 26 21 23 20 12 9 2 -15 -20 -20 -20 -20 -20 -20 -20 -19 -20 -20 -20 -20 -20 -20 -20 -20 -20 -20 -20 -20 -20 -20 -20 -20 -20 -20 -20 -20 -20 -20 -20 -20 -20 -20
31 33 37 36 28 27 28 29 28 22 13 13 20 20 16 18 5 4 -13 -20 -20 -20 -20 -20 -20 -20 -20 -20 -20 -20 -20 -20 -20 -20 -20 -20 -20 -20 -20 -20 -20 -20 -20 -20 -20 -20 -20 -20 -20 -20 -20 -20 -18 -19
31 28 29 30 29 24 20 19 12 10 17 6 10 17 10 4 -17 -20 -20 -20 -20 -20 -20 -20 -20 -20 -20 -20 -20 -20 -20 -20 -20 -20 -13 -20 -20 -20 -20 -20 -20 -20 -20 -20 -20 -20 -20 -20 -20 -20 -20 -20 -20 -20
31 30 29 28 20 10 10 13 13 7 -2 19 6 -16 -20 -20 -20 -20 -20 -20 -20 -20 -20 -20 -20 -20 -20 -20 -20 -20 -20 -20 -20 -20 -20 -20 -20 -20 -20 -20 -20 -20 -20 -20 -20 -20 -20 -20 -20 -20 -20 -20 -20 -20
24 19 18 19 20 18 10 5 6 17 21 -4 -20 -20 -20 -20 -20 -20 -20 -20 -20 -20 -20 -20 -20 -20 -20 -20 -20 -20 -20 -20 -20 -20 -20 -20 -20 -20 -20 -20 -20 -20 -20 -20 -20 -20 -20 -20 -20 -20 -20 -20 -20 -20
-5 2 6 -2 -11 -15 -15 7 11 13 6 -20 -20 -20 -20 -20 -20 -20 -4 -20 -20 -20 -20 -20 -20 -20 -20 -20 -20 -20 -20 -20 -20 -20 -20 -20 -20 -20 -20 -20 -20 -20 -20 -20 -20 -20 -20 -20 -20 -20 -20 -20 -20 -20
-20 -20 -20 -19 -10 -10 -20 16 24 -11 -20 -20 -20 -20 -20 -20 -20 -20 -20 -20 -20 -20 -20 -20 -20 -20 -20 -20 -20 -20 -20 -20 -20 -20 -20 -20 -20 -20 -20 -20 -20 -20 -20 -20 -20 -20 -20 -20 -20 -20 -20 -20 -20 -20
-20 -20 -20 -4 -20 21 16 -15 -9 -20 -20 -20 -20 -20 -20 -20 -20 -20 -20 -20 -20 -20 -20 -20 -20 -20 -20 -20 -20 -20 -20 -20 -20 -20 -20 -20 -20 -20 -20 -20 -20 -20 -20 -20 -20 -20 -20 -20 -20 -20 -20 -20 -20 -20
-20 -15 -20 -20 22 11 3 3 -20 -20 -20 -20 -20 -20 -20 -20 -20 -20 -20 -20 -20 -20 -20 -20 -20 -20 -20 -20 -20 -20 -20 -20 -20 -20 -20 -20 -20 -20 -20 -20 -20 -20 -20 -20 -20 -20 -20 -20 -20 -20 -20 -20 -20 -20
10 -5 -20 -17 28 13 -9 -20 -20 -20 -20 -20 -20 -20 -20 -20 -20 -20 -20 -20 -20 -20 -20 -20 -20 -20 -20 -20 -20 -20 -20 -20 -20 -20 -20 -20 -20 -20 -20 -20 -20 -20 -20 -20 -20 -20 -20 -20 -20 -20 -20 -20 -20 -20
19 7 -13 21 21 6 -20 -20 -20 -20 -20 -20 -20 -20 -20 -20 -20 -20 -20 -20 -20 -20 -20 -20 -20 -20 -20 -20 -20 -20 -20 -20 -20 -20 -20 -20 -20 -20 -20 -20 -20 -20 -20 -20 -20 -20 -20 -20 -20 -20 -20 -20 -20 -20
19 -2 28 35 18 -19 -20 -20 -20 -20 -20 -20 -20 -20 -20 -20 -20 -20 -20 -20 -20 -20 -20 -20 -20 -20 -20 -20 -20 -20 -20 -20 -20 -20 -20 -20 -20 -20 -20 -20 -20 -20 -20 -20 -20 -20 -20 -20 -20 -20 -20 -20 -20 -20
6 5 -3 -19 -20 -20 -20 -20 -20 -20 -20 -20 -20 -20 -20 -20 -20 -20 -20 -20 -20 -20 -20 -20 -20 -20 -20 -20 -20 -20 -20 -20 -20 -20 -20 -20 -20 -20 -20 -20 -20 -20 -20 -20 -20 -20 -20 -20 -20 -20 -20 -20 -20 -20
-10 -18 -20 -20 -20 -20 -20 -20 -20 -20 -20 -20 -20 -20 -20 -20 -20 -20 -20 -20 -20 -20 -20 -20 -20 -20 -20 -20 -20 -20 -20 -20 -20 -20 -20 -20 -20 -20 -20 -20 -20 -20 -20 -20 -20 -20 -20 -20 -20 -20 -20 -20 -20 -20
-20 -20 -20 -20 -20 -20 -20 -20 -20 -20 -20 -20 -20 -20 -20 -20 -20 -20 -20 -20 -20 -20 -20 -20 -20 -20 -20 -20 -20 -20 -20 -20 -20 -20 -20 -20 -20 -20 -20 -20 -20 -20 -20 -20 -20 -20 -20 -20 -20 -20 -20 -20 -20 -20
-20 -20 -20 -20 -20 -20 -20 -20 -20 -20 -20 -20 -20 -20 -20 -20 -20 -20 -20 -20 -20 -20 -20 -20 -20 -20 -20 -20 -20 -20 -20 -20 -20 -20 -20 -20 -20 -20 -20 -20 -20 -20 -20 -20 -20 -20 -20 -20 -20 -20 -20 -20 -20 -20
-20 -20 -20 -20 -20 -20 -20 -20 -20 -20 -20 -20 -20 -20 -20 -20 -20 -20 -20 -20 -20 -20 -20 -20 -20 -20 -20 -20 -20 -20 -20 -20 -20 -20 -20 -20 -20 -20 -20 -20 -20 -20 -20 -20 -20 -20 -20 -20 -20 -20 -20 -20 -20 -20
-20 -20 -20 -20 -20 -20 -20 -20 -20 -20 -20 -20 -20 -20 -20 -20 -20 -20 -20 -20 -20 -20 -20 -20 -20 -20 -20 -20 -20 -20 -20 -20 -20 -20 -20 -20 -20 -20 -20 -20 -20 -20 -20 -20 -20 -18 -20 -20 -20 -20 -20 -20 -20 -20
-20 -20 -20 -20 -20 -20 -20 -20 -20 -20 -20 -20 -20 -20 -20 -20 -20 -20 -20 -20 -20 -20 -20 -20 -20 -10 -5 -20 -17 -18 -20 -20 -20 -20 -20 -20 -20 -20 -20 -14 -8 -20 -20 -20 -20 -3 -16 -16 -20 -17 -18 -7 3 -6
-20 -20 -20 -20 -20 -20 -20 -20 -20 -20 -20 -20 -20 -20 -20 -20 -20 -20 -20 -20 -20 -20 -20 -13 -20 -20 -20 -20 -10 -7 -20 -6 -2 4 1 -5 -20 -20 -20 -20 -20 -20 -20 -20 -20 -20 -20 -20 -20 -20 -20 -20 -20 -20
-20 -20 -20 -20 -20 -20 -20 -20 -20 -20 -20 -20 -20 -20 -20 -20 -20 -20 -20 -20 -17 -2 6 -4 -16 -6 -15 -5 -2 -8 -12 -20 -20 -18 -8 2 3 -17 -20 -20 -15 -20 -20 -7 -11 -20 -20 -20 -20 -7 -0 -13 -20 -20
-20 -20 -20 -20 -20 -20 -20 -20 -20 -20 -20 -20 -20 -20 -20 -20 -20 -20 -20 -15 2 -7 -2 2 0 -6 -17 -19 -20 -20 -20 -14 -6 -14 -18 -10 -1 -3 -11 -15 -5 2 -14 -20 -14 -12 -14 -19 -14 -17 -5 -12 -20 -20
-20 -20 -20 -20 -20 -20 -20 -20 -20 -20 -20 -20 -20 -20 -20 -20 -20 -20 -20 -5 -5 -6 -20 -20 -20 -20 -20 -20 -20 -20 -20 -20 -20 -20 -13 -20 -17 -3 -7 -20 -20 -20 -20 -20 -20 -20 -20 -20 -20 -20 -20 -20 -20 -20
-20 -20 -20 -20 -20 -20 -20 -20 -20 -20 -20 -20 -20 -20 -20 -20 -20 -20 -20 -20 -20 -20 -20 -20 -20 -20 -20 -20 -20 -20 -20 -20 -20 -20 -20 -13 -13 -20 -20 -20 -20 -20 -20 -15 -20 -20 -20 -20 -20 -20 -20 -20 -8 7
-20 -20 -20 -20 -20 -20 -20 -20 -20 -20 -20 -20 -20 -20 -20 -20 -20 -20 -20 -20 -20 -16 -2 2 -8 -20 -20 -20 -20 -20 -20 -20 -20 -20 -20 -20 -18 -2 -12 -20 -20 -16 0 8 -2 -14 -15 -20 -18 -17 -20 -20 -2 -20
-20 -20 -20 -20 -20 -20 -20 -20 -20 -20 -20 -20 -20 -20 -20 -20 -20 -20 -20 -20 -9 -9 2 7 -14 -20 -20 -20 -20 -20 -20 -20 -20 -20 -20 -20 -20 -20 -6 11 10 13 20 3 -3 4 -19 -7 -18 -20 -20 -20 -20 -20
-20 -20 -20 -20 -20 -20 -20 -20 -20 -20 -20 -20 -20 -20 -20 -20 -20 -20 -20 -20 -20 -20 -20 -20 -20 -20 -14 -20 -20 -20 -20 -20 -20 -20 -19 -20 -20 -20 -20 -19 -7 7 0 0 12 8 3 2 -20 -20 -20 -20 -20 -20
-20 -20 -20 -20 -20 -20 -20 -20 -20 -20 -20 -20 -20 -20 -20 -20 -20 -20 -20 -20 -20 -20 -20 -20 -20 -20 -20 -20 -20 -20 -20 -20 -20 -20 -20 -20 -20 -20 -20 -19 -20 -20 -20 -10 3 6 11 7 -20 -18 -20 -20 -20 -20
-20 -20 -20 -20 -20 -20 -20 -20 -20 -20 -20 -20 -20 -20 -20 -20 -20 -20 -20 -20 -20 -20 -20 -20 -20 -20 -20 -20 -20 -20 -20 -20 -20 -20 -19 -20 -20 -20 -20 -19 -20 -20 -20 -20 -20 -20 -12 -18 -20 -20 -20 -20 -20 -20
-20 -20 -20 -20 -20 -20 -20 -20 -20 -20 -20 -20 -20 -20 -20 -20 -20 -20 -20 -20 -20 -20 -20 -20 -20 -20 -20 -20 -20 -20 -20 -20 -20 -20 -20 -18 -18 -20 -20 -20 -20 -20 -20 -20 -20 -20 -20 -20 -20 -20 -20 -20 -20 -20
-20 -20 -20 -20 -20 -20 -20 -20 -20 -20 -20 -20 -20 -20 -20 -20 -20 -20 -20 -20 -20 -20 -20 -20 -20 -20 -20 -20 -20 -20 -20 -20 -20 -20 -20 -19 -20 -20 -20 -20 -20 -20 -20 -20 -20 -20 -20 -10 -20 -20 -20 -20 -20 -20
-20 -20 -20 -20 -20 -20 -20 -20 -20 -20 -20 -20 -20 -20 -20 -20 -20 -20 -20 -20 -20 -20 -20 -20 -20 -20 -20 -20 -20 -20 -20 -20 -20 -20 -15 -20 -20 -20 -20 -20 -20 -20 -20 -20 -20 -20 -11 -6 -19 -20 -20 -20 -20 -20
Wind_Speed
29 32 32 32 31 29 27 25 22 20 16 16 14 11 11 14 16 6 4 6 6 5 6 7 5 3 3 3 2 3 2 1 2 1 1 4 2 1 3 1 1 1 1 2 3 2 4 11 2 3 3 3 4 5
32 31 28 30 29 26 23 21 19 19 18 14 11 11 13 16 15 9 5 5 8 8 4 4 6 4 3 2 0 1 2 2 1 1 1 1 0 2 3 3 2 2 4 2 4 2 2 3 2 2 3 4 4 7
31 30 27 25 25 23 22 21 19 17 15 13 12 12 12 16 11 11 5 2 5 4 4 4 3 4 8 3 2 2 3 2 2 1 1 1 3 2 2 2 2 2 1 1 2 3 4 4 3 6 5 6 8 7
26 26 24 22 21 21 20 19 17 16 15 13 12 22 22 19 18 12 6 2 4 5 5 2 3 4 5 7 5 2 3 3 3 2 3 3 2 3 1 1 2 2 4 3 3 3 6 1 5 6 8 9 9 10
23 22 21 21 21 19 19 19 17 15 13 24 26 26 26 27 29 16 8 6 4 5 5 3 1 5 5 4 8 7 7 4 2 3 3 2 2 3 2 3 3 0 2 0 3 3 4 7 5 7 6 7 8 8
20 19 18 18 20 19 18 17 17 23 30 29 29 26 21 14 6 3 4 4 8 2 6 3 2 8 10 7 6 7 4 4 3 3 2 2 3 2 2 1 4 4 3 5 4 3 6 10 8 4 4 6 7 8
18 17 17 17 17 17 17 19 23 31 29 28 27 27 27 30 14 8 3 4 6 3 5 4 3 5 8 2 3 3 5 2 3 3 3 2 3 3 2 1 5 6 6 7 5 2 5 3 6 9 6 9 11 8
17 16 15 16 17 17 18 25 33 32 32 31 29 28 25 21 13 9 12 13 6 8 7 5 3 3 8 4 4 3 3 4 5 3 2 2 2 2 1 6 6 6 8 6 4 5 8 10 8 8 5 5 8 10
13 13 13 16 16 22 35 33 32 30 28 26 20 16 8 9 5 2 9 15 8 7 6 4 3 4 7 3 2 4 2 4 1 3 2 1 2 1 6 5 6 6 4 8 10 9 10 6 9 11 8 9 8 11
14 13 13 14 22 30 33 30 29 25 19 13 8 6 5 3 8 7 9 8 10 7 6 3 2 3 3 4 4 4 3 2 3 2 2 3 4 5 7 8 7 8 8 7 7 10 11 12 11 10 11 10 10 11
12 16 16 17 28 28 30 27 22 15 9 5 5 4 1 8 5 6 6 7 5 7 4 3 1 2 3 2 2 2 2 2 4 5 2 3 4 6 7 6 7 8 8 9 9 11 12 13 13 13 13 12 12 12
24 23 18 24 28 28 25 18 14 9 4 8 11 7 4 8 7 10 4 5 7 0 4 3 3 2 3 2 4 4 3 4 1 3 4 3 7 8 5 9 11 9 9 11 11 12 13 13 12 12 12 12 12 13
27 29 27 27 26 27 27 30 30 24 9 5 8 9 7 7 16 10 7 6 5 4 2 3 4 2 4 4 3 4 6 3 3 5 3 6 5 6 8 9 12 9 10 12 13 13 13 15 14 13 14 13 12 12
25 26 27 26 26 25 22 17 12 10 9 9 8 11 7 7 3 3 3 3 4 2 5 4 2 2 2 5 1 6 3 2 5 4 6 5 7 8 10 9 10 14 13 14 14 15 15 15 14 14 13 12 11 12
26 26 25 23 24 23 22 22 19 7 7 8 8 6 5 3 2 3 2 3 3 2 2 3 2 2 3 4 3 2 7 4 4 6 5 5 7 11 13 13 13 13 13 13 13 13 14 14 13 15 13 11 11 12
22 21 17 24 23 20 15 12 9 6 7 7 9 6 1 3 4 4 2 3 2 2 1 2 2 5 4 1 6 2 3 5 6 5 6 10 14 14 14 14 14 14 14 14 13 14 14 14 14 15 15 13 13 12
22 9 22 24 25 25 20 8 6 11 8 8 4 2 2 1 4 3 2 3 2 1 1 2 6 4 2 3 4 4 5 5 9 13 11 14 15 16 16 15 15 15 15 15 15 14 15 14 13 13 15 15 12 12
5 6 12 11 8 11 6 8 8 9 9 2 4 3 2 0 2 2 3 3 2 1 2 2 3 5 1 2 4 4 7 9 10 11 12 14 15 16 14 17 16 16 16 16 15 16 15 14 13 12 13 13 12 11
13 12 20 18 10 7 8 8 7 7 1 1 2 1 1 2 1 2 3 3 2 2 4 3 4 1 3 4 8 11 11 10 13 13 12 16 15 15 15 15 16 16 15 15 14 11 11 14 12 11 10 9 9 9
27 25 24 27 14 6 10 6 4 7 2 2 2 3 2 2 4 3 3 4 2 2 5 3 2 3 4 9 9 11 11 11 11 13 14 11 10 13 14 12 10 13 13 13 11 17 10 9 9 8 8 9 9 9
13 10 17 11 6 10 8 3 6 2 1 3 3 3 3 3 3 5 4 5 3 2 2 3 5 9 10 10 10 9 11 10 10 10 13 15 11 11 12 11 10 10 10 10 10 11 13 9 9 8 9 10 9 10
4 13 5 6 8 7 8 3 4 2 3 1 3 2 3 4 4 4 5 3 1 2 3 4 8 10 10 11 11 11 12 13 13 11 17 15 10 11 11 11 10 11 10 10 9 10 11 10 9 9 9 9 12 9
7 7 7 9 10 10 3 3 6 7 5 5 3 5 4 4 4 4 1 2 3 4 5 6 10 11 11 14 12 11 10 10 9 9 10 9 10 10 10 11 9 10 11 11 9 9 10 17 13 12 10 10 9 9
11 10 10 8 8 3 3 7 3 4 4 6 5 6 6 4 7 3 3 2 3 5 7 11 8 10 9 9 7 10 10 7 9 10 8 8 9 10 10 11 10 10 10 11 10 10 10 10 16 10 11 11 11 10
13 13 9 9 4 7 9 7 7 7 4 4 5 5 5 4 5 4 3 4 6 7 8 10 8 7 8 9 9 9 11 8 10 13 12 9 9 10 11 9 10 10 9 9 9 10 11 11 11 11 12 11 13 14
12 7 7 1 4 5 1 5 5 3 2 5 2 3 3 3 5 4 3 5 4 5 9 9 9 9 10 8 10 11 13 11 11 11 12 8 11 10 12 13 14 13 5 7 10 12 12 12 12 13 10 12 19 15
8 5 3 1 1 3 3 2 1 2 3 2 4 5 4 6 4 4 3 2 3 6 8 8 7 7 9 11 11 10 10 9 9 11 14 13 11 9 9 11 16 12 10 12 11 10 13 14 11 11 10 10 11 11
3 1 3 3 3 1 3 1 1 2 3 2 0 3 1 3 4 3 4 3 2 6 8 7 6 6 7 9 10 10 11 11 12 11 10 7 5 6 9 10 9 25 14 11 12 10 11 9 10 10 11 12 11 11
3 2 0 4 2 2 2 3 3 3 1 2 2 3 4 4 4 3 4 3 6 6 7 10 11 7 8 7 7 7 7 8 12 20 22 16 16 14 12 11 11 11 11 9 18 17 17 13 12 11 10 10 10 8
3 0 3 1 2 2 4 3 2 2 2 2 2 4 4 5 5 3 5 5 4 6 6 8 8 7 8 9 12 15 9 6 3 9 13 15 15 15 14 12 12 12 11 11 11 9 16 10 10 8 9 8 9 9
1 2 2 1 3 3 2 2 2 1 2 1 1 3 5 6 8 4 4 4 4 4 5 8 10 8 7 9 9 10 13 7 13 14 12 12 12 13 13 11 11 10 10 11 11 10 10 10 9 9 11 12 14 14
3 2 1 3 4 3 2 3 1 1 2 2 3 1 4 3 5 5 3 2 3 4 9 7 7 12 11 8 8 7 15 12 13 12 17 13 14 14 12 10 9 9 11 11 10 10 12 12 11 12 8 13 13 13
2 1 1 2 4 5 4 4 4 5 2 2 3 3 3 3 7 6 4 4 5 5 6 6 8 9 11 11 10 11 14 10 18 26 26 28 28 24 12 9 9 10 13 11 11 10 12 15 12 14 12 9 12 11
Wind_Direction
115 115 116 113 113 122 127 121 120 124 134 132 138 154 174 145 127 94 72 16 106 94 37 30 38 53 16 37 102 304 6 5 341 57 185 249 212 60 83 240 172 97 18 310 280 276 242 347 336 342 346 315 351 342
103 104 109 111 112 116 119 126 137 129 121 129 147 164 138 132 123 101 88 59 64 80 107 101 97 69 49 29 57 333 190 263 278 108 147 248 88 50 163 257 326 272 186 213 175 284 299 341 44 335 329 321 327 320
103 105 109 111 114 121 125 119 122 124 132 145 136 153 143 123 100 103 99 91 68 101 57 48 14 6 32 7 250 114 322 290 48 165 113 93 100 303 191 202 171 338 349 194 6 276 328 280 352 0 334 322 323 315
103 104 108 116 119 118 121 123 130 128 120 140 144 105 101 98 91 82 75 344 83 108 101 26 32 24 331 18 38 344 279 299 85 43 67 58 95 16 112 93 87 226 332 301 274 315 324 245 332 332 320 328 324 323
107 109 112 115 113 115 116 108 117 137 137 104 102 102 102 102 96 88 78 47 53 111 123 137 168 6 14 26 32 19 42 47 41 59 50 53 71 86 51 65 356 248 228 114 255 230 227 270 287 304 304 302 300 299
109 112 118 128 123 120 124 124 118 102 102 102 103 103 100 98 89 76 65 10 11 58 95 93 141 18 7 11 37 27 34 46 65 84 62 30 312 101 97 135 255 257 257 217 259 271 243 267 277 263 255 280 280 282
96 101 107 111 113 118 127 121 113 114 106 97 94 88 83 78 67 53 35 284 349 47 79 87 48 11 344 357 15 18 26 62 86 86 57 61 7 48 76 106 280 298 286 281 246 304 309 280 272 287 259 269 289 277
103 109 114 120 125 125 129 116 112 109 109 105 100 95 87 81 73 44 34 33 64 84 50 67 332 10 7 346 344 10 25 24 21 120 42 67 3 46 62 259 280 272 293 296 285 229 243 277 290 271 255 278 296 290
94 102 112 117 123 120 113 119 116 115 112 109 102 91 65 39 45 340 46 43 44 69 94 67 26 294 343 345 32 351 20 52 251 57 347 64 346 31 241 266 281 270 234 273 293 279 278 263 276 279 271 281 273 284
103 118 126 131 128 128 123 124 119 117 107 91 52 46 52 25 335 21 15 26 25 15 38 79 290 292 352 334 333 357 10 47 65 281 40 65 249 255 256 241 253 274 268 273 284 299 301 297 293 291 283 269 260 267
71 121 130 132 129 125 119 121 116 106 64 44 58 66 30 347 45 37 50 45 352 30 15 315 96 313 327 27 299 77 212 325 64 280 96 319 292 248 254 269 273 270 264 260 246 261 267 269 280 287 289 285 285 284
66 95 118 126 129 123 108 96 79 58 49 88 104 83 47 29 35 69 21 7 41 64 323 1 319 257 303 27 63 339 104 34 283 305 65 313 252 248 266 270 284 278 276 281 276 273 277 276 275 278 283 282 281 282
74 85 84 91 99 94 94 94 96 104 86 54 50 51 33 326 41 55 352 337 360 335 330 328 316 343 337 35 46 45 55 236 303 36 240 233 261 268 261 289 293 279 273 281 288 283 280 283 282 274 278 278 278 278
78 82 84 86 89 89 89 86 96 75 62 59 55 36 70 4 43 178 195 228 262 257 314 330 296 15 322 25 229 67 234 46 24 10 249 252 245 268 289 282 288 294 294 288 288 287 283 283 281 280 273 274 275 276
80 81 84 86 86 85 83 76 69 57 67 68 55 58 59 235 267 243 275 286 270 313 345 358 357 53 350 50 35 360 12 344 204 241 244 251 268 287 294 294 294 293 293 290 285 281 280 279 277 279 276 270 263 271
87 85 88 91 87 81 71 61 46 63 55 72 50 57 11 54 316 338 320 280 270 305 136 56 73 45 12 109 32 193 104 242 258 235 272 294 298 298 295 294 291 289 287 283 281 278 280 280 277 278 283 276 272 269
80 82 96 90 80 64 46 63 55 50 79 55 9 4 99 145 221 265 260 270 290 62 65 83 54 229 315 15 330 186 215 245 293 298 297 293 292 295 295 293 290 288 287 285 285 282 280 279 279 278 276 276 270 263
43 90 88 81 63 57 49 39 72 66 63 350 79 291 332 295 277 302 304 310 359 39 65 153 115 40 110 298 280 246 259 276 279 287 293 293 293 292 292 291 289 288 287 286 283 282 282 280 277 276 274 272 272 268
68 59 63 66 75 78 66 30 50 81 122 276 300 328 278 285 250 287 306 351 45 62 107 45 64 329 263 235 266 286 289 292 297 300 293 293 290 291 291 290 289 289 288 289 290 286 284 281 274 274 273 274 270 272
68 54 53 49 47 65 62 24 29 79 72 275 20 353 304 319 315 333 351 16 12 61 37 31 235 243 248 278 281 283 287 290 294 299 299 300 304 299 291 291 293 296 294 292 288 290 295 282 273 272 270 266 266 268
43 10 36 49 48 66 86 9 47 108 245 78 299 0 306 354 14 6 331 342 40 92 328 231 253 279 276 274 276 277 282 286 284 281 291 301 304 309 304 298 297 295 292 292 294 296 308 288 288 287 280 274 268 268
8 31 47 24 70 56 73 358 114 265 63 256 19 8 24 1 331 317 311 7 256 260 225 267 292 304 308 309 306 302 295 293 288 286 297 298 299 307 306 303 304 299 297 295 294 293 294 292 292 280 276 278 279 281
33 39 38 24 67 47 316 20 58 0 56 328 5 20 351 340 246 315 323 252 270 251 267 290 302 304 299 298 300 299 300 297 299 301 300 297 293 293 293 295 297 297 301 301 298 292 291 296 306 303 283 287 284 283
39 48 43 51 37 25 348 20 28 26 33 24 22 352 342 302 321 20 340 297 267 310 333 332 331 324 323 328 326 324 323 316 311 309 311 305 304 304 302 295 296 290 284 286 292 293 291 288 295 298 290 288 289 285
59 356 48 10 355 41 28 5 356 27 21 345 6 350 333 348 10 345 312 291 327 333 333 335 332 328 318 313 321 322 327 331 324 316 313 310 302 306 308 307 303 298 297 294 300 305 302 301 295 295 294 296 292 291
66 322 60 296 336 66 345 23 18 342 360 341 300 275 9 33 18 333 304 317 305 322 337 335 327 322 323 328 316 323 325 326 317 311 308 320 313 307 304 311 317 318 317 302 308 311 316 316 317 322 323 330 333 335
58 344 332 27 125 108 65 49 47 82 18 352 308 344 16 36 312 273 295 267 280 326 325 312 307 299 297 309 312 311 311 312 303 293 297 300 294 288 291 303 312 312 326 329 319 328 330 322 344 331 339 336 336 333
135 54 81 305 47 13 124 56 40 349 267 231 156 342 65 198 265 258 244 260 280 317 307 297 289 283 297 301 300 304 309 309 304 301 298 278 261 287 318 318 322 336 331 324 338 344 330 351 339 347 348 341 335 336
55 333 96 3 354 23 188 171 234 238 202 134 161 270 257 236 255 257 285 326 321 307 313 331 327 327 313 308 303 301 305 310 330 342 343 337 334 339 340 333 339 332 328 331 338 346 345 4 350 0 352 333 328 332
319 1 88 74 90 274 244 164 225 250 236 218 275 294 270 264 257 252 279 294 300 301 300 299 289 306 316 328 326 327 334 323 265 340 327 324 319 315 325 331 338 331 327 335 332 328 342 353 338 353 354 347 347 353
1 42 35 73 243 256 246 305 323 296 353 289 273 218 268 307 306 265 235 234 256 288 311 316 325 326 317 319 320 318 320 319 331 325 313 313 313 322 326 338 329 324 327 333 332 331 335 338 342 352 354 350 346 353
16 71 74 328 297 293 21 35 339 334 318 347 279 294 300 323 281 284 250 139 314 302 302 325 315 317 319 305 290 275 283 299 317 320 328 326 332 331 339 336 327 329 330 333 332 332 336 342 341 348 343 353 348 347
51 40 45 354 333 341 339 7 8 331 328 297 267 218 234 215 254 282 300 205 227 259 285 291 292 296 297 291 285 293 310 303 313 331 334 342 345 349 351 338 337 340 336 337 335 337 340 340 345 346 347 344 348 351